Waarnemingen

Advertentie
Mijn weer
Berus, Duitsland (10704): temperatuur & dauwpunt: 19.09.2017 06:00:00 - 25.09.2017 06:00:00 (CEST)Berus, Duitsland (10704): temperatuur 5cm & temperatuur -5cm: 19.09.2017 06:00:00 - 25.09.2017 06:00:00 (CEST)Berus, Duitsland (10704): temperatuur -20cm & temperatuur -100cm: 19.09.2017 06:00:00 - 25.09.2017 06:00:00 (CEST)Berus, Duitsland (10704): windsnelheid & windstoten: 19.09.2017 06:00:00 - 25.09.2017 06:00:00 (CEST)Berus, Duitsland (10704): windrichting: 19.09.2017 06:00:00 - 25.09.2017 06:00:00 (CEST)Berus, Duitsland (10704): luchtdruk: 19.09.2017 06:00:00 - 25.09.2017 06:00:00 (CEST)Berus, Duitsland (10704): zicht: 19.09.2017 06:00:00 - 25.09.2017 06:00:00 (CEST)Berus, Duitsland (10704): Zonneschijnduur: 19.09.2017 06:00:00 - 25.09.2017 06:00:00 (CEST)Berus, Duitsland (10704): neerslag: 19.09.2017 06:00:00 - 25.09.2017 06:00:00 (CEST)
Datum & Tijd tt [°C] td [°C] tt 5cm [°C] tt -5cm [°C] tt -20cm [°C] tt -100cm [°C] ff [km/u] ff [kn] fx [km/u] fx [kn] dd ppp [hPa] vv [km] sd [min] rr [mm]
25.09.2017 06:00:00 - - - - - - - - - - - - - - -
25.09.2017 05:00:00 - - - - - - - - - - - - - - -
25.09.2017 04:00:00 - - - - - - - - - - - - - - -
25.09.2017 03:00:00 - - - - - - - - - - - - - - -
25.09.2017 02:00:00 - - - - - - - - - - - - - - -
25.09.2017 01:00:00 - - - - - - - - - - - - - - -
25.09.2017 00:00:00 - - - - - - - - - - - - - - -
24.09.2017 23:00:00 - - - - - - - - - - - - - - -
24.09.2017 22:00:00 - - - - - - - - - - - - - - -
24.09.2017 21:00:00 - - - - - - - - - - - - - - -
24.09.2017 20:00:00 - - - - - - - - - - - - - - -
24.09.2017 19:00:00 - - - - - - - - - - - - - - -
24.09.2017 18:00:00 - - - - - - - - - - - - - - -
24.09.2017 17:00:00 - - - - - - - - - - - - - - -
24.09.2017 16:00:00 - - - - - - - - - - - - - - -
24.09.2017 15:00:00 - - - - - - - - - - - - - - -
24.09.2017 14:00:00 - - - - - - - - - - - - - - -
24.09.2017 13:00:00 - - - - - - - - - - - - - - -
24.09.2017 12:00:00 - - - - - - - - - - - - - - -
24.09.2017 11:00:00 - - - - - - - - - - - - - - -
24.09.2017 10:00:00 - - - - - - - - - - - - - - -
24.09.2017 09:00:00 - - - - - - - - - - - - - - -
24.09.2017 08:00:00 - - - - - - - - - - - - - - -
24.09.2017 07:00:00 - - - - - - - - - - - - - - -
24.09.2017 06:00:00 - - - - - - - - - - - - - - -
24.09.2017 05:00:00 - - - - - - - - - - - - - - -
24.09.2017 04:00:00 - - - - - - - - - - - - - - -
24.09.2017 03:00:00 - - - - - - - - - - - - - - -
24.09.2017 02:00:00 - - - - - - - - - - - - - - -
24.09.2017 01:00:00 - - - - - - - - - - - - - - -
24.09.2017 00:00:00 - - - - - - - - - - - - - - -
23.09.2017 23:00:00 - - - - - - - - - - - - - - -
23.09.2017 22:00:00 - - - - - - - - - - - - - - -
23.09.2017 21:00:00 - - - - - - - - - - - - - - -
23.09.2017 20:00:00 - - - - - - - - - - - - - - -
23.09.2017 19:00:00 - - - - - - - - - - - - - - -
23.09.2017 18:00:00 - - - - - - - - - - - - - - -
23.09.2017 17:00:00 - - - - - - - - - - - - - - -
23.09.2017 16:00:00 - - - - - - - - - - - - - - -
23.09.2017 15:00:00 - - - - - - - - - - - - - - -
23.09.2017 14:00:00 - - - - - - - - - - - - - - -
23.09.2017 13:00:00 - - - - - - - - - - - - - - -
23.09.2017 12:00:00 - - - - - - - - - - - - - - -
23.09.2017 11:00:00 - - - - - - - - - - - - - - -
23.09.2017 10:00:00 12,6 9,8 13,7 12,4 13,0 15,0 13 7 16 9 NW 1023,4 10 47 0,0
23.09.2017 09:00:00 10,8 9,7 10,3 11,5 13,1 15,0 11 6 14 8 NNO 1023,5 8 5 0,0
23.09.2017 08:00:00 10,4 9,5 9,5 11,3 13,2 15,0 12 7 14 8 NNO 1023,4 7 0 0,0
23.09.2017 07:00:00 10,6 9,9 9,8 11,2 13,4 15,0 10 6 14 7 NNO 1023,3 8 0 0,0
23.09.2017 06:00:00 10,8 9,9 10,0 11,3 13,5 15,0 10 5 14 8 N 1023,1 11 0 0,0
23.09.2017 05:00:00 10,9 10,4 9,9 11,4 13,8 15,0 12 6 14 8 NNO 1023,1 6 0 0,0
23.09.2017 04:00:00 11,5 10,7 9,6 11,6 14,0 15,0 10 6 12 6 NNO 1023,1 13 0 0,0
23.09.2017 03:00:00 12,2 10,5 9,5 12,1 14,3 15,0 7 4 10 5 NNO 1023,1 22 0 0,0
23.09.2017 02:00:00 13,1 10,4 11,4 12,6 14,5 15,0 9 5 13 7 NNO 1023,1 29 0 0,0
23.09.2017 01:00:00 13,9 10,6 12,0 12,9 14,8 15,0 9 5 13 7 N 1022,6 31 0 0,0
23.09.2017 00:00:00 13,9 10,6 10,5 13,5 15,0 15,0 7 4 13 7 N 1022,7 28 0 0,0
22.09.2017 23:00:00 14,8 11,1 12,9 14,3 15,2 15,0 6 4 18 10 N 1022,5 37 0 0,0
22.09.2017 22:00:00 15,6 11,0 14,7 14,5 15,5 15,0 10 6 16 9 NW 1022,2 42 0 0,0
22.09.2017 21:00:00 14,8 9,8 11,2 15,1 15,8 15,0 5 3 8 4 NNO 1021,8 53 0 0,0
22.09.2017 20:00:00 16,3 9,4 12,2 16,3 16,0 15,0 6 3 8 4 W 1021,1 55 0 0,0
22.09.2017 19:00:00 17,2 9,5 13,9 17,9 16,0 15,0 3 1 13 7 ONO 1020,5 55 51 0,0
22.09.2017 18:00:00 18,9 9,4 19,7 19,7 15,8 15,0 6 3 13 7 N 1020,1 53 56 0,0
22.09.2017 17:00:00 18,6 11,1 20,0 19,6 15,5 15,0 8 4 15 8 WNW 1020,2 53 23 0,0
22.09.2017 16:00:00 18,8 9,5 20,7 20,2 15,1 15,0 10 5 16 9 NW 1020,1 61 36 0,0
22.09.2017 15:00:00 18,3 8,7 19,8 20,2 14,5 15,0 9 5 17 9 NW 1020,0 57 24 0,0
22.09.2017 14:00:00 18,5 9,6 20,2 20,3 13,7 15,0 8 4 14 8 W 1020,1 40 60 0,0
22.09.2017 13:00:00 16,9 10,2 19,3 18,4 13,0 15,0 4 2 9 5 WZW 1020,4 26 59 0,0
22.09.2017 12:00:00 15,4 9,3 17,0 16,1 12,4 15,0 3 2 7 4 WZW 1020,7 23 60 0,0
22.09.2017 11:00:00 12,7 8,7 14,4 13,8 12,0 15,0 5 3 8 5 WNW 1021,0 14 60 0,0
22.09.2017 10:00:00 11,7 8,0 12,9 11,3 11,8 15,0 3 2 8 4 WZW 1020,9 12 60 0,0
22.09.2017 09:00:00 10,4 7,8 10,9 9,7 11,8 15,0 4 2 8 5 ONO 1020,8 10 42 0,0
22.09.2017 08:00:00 8,5 7,6 6,7 9,1 12,1 15,0 5 3 8 4 NO 1020,8 9 0 0,0
22.09.2017 07:00:00 8,7 7,7 6,2 9,3 12,3 15,0 5 3 7 4 NNO 1020,4 8 0 0,0
22.09.2017 06:00:00 9,0 7,6 6,7 9,7 12,5 15,0 7 4 9 5 NO 1020,1 11 0 0,0
22.09.2017 05:00:00 9,6 7,6 7,5 10,1 12,8 15,0 8 4 9 5 NNO 1020,0 13 0 0,0
22.09.2017 04:00:00 10,1 7,7 8,4 10,6 13,0 15,0 8 4 11 6 NNO 1020,0 17 0 0,0
22.09.2017 03:00:00 10,5 8,2 9,2 10,9 13,2 15,0 8 5 12 6 NNO 1020,4 18 0 0,0
22.09.2017 02:00:00 10,4 8,4 8,9 10,9 13,5 15,0 10 5 12 7 NNO 1020,4 15 0 0,0
22.09.2017 01:00:00 10,6 8,6 8,9 11,3 13,8 15,0 10 5 14 7 NNO 1020,3 15 0 0,0
22.09.2017 00:00:00 11,4 9,0 9,5 11,9 14,1 15,1 11 6 13 7 NNO 1020,1 21 0 0,0
21.09.2017 23:00:00 12,5 9,0 10,0 12,5 14,4 15,1 8 4 16 9 ONO 1020,0 20 0 0,0
21.09.2017 22:00:00 13,3 8,7 11,6 13,2 14,8 15,1 10 5 15 8 O 1019,7 35 0 0,0
21.09.2017 21:00:00 14,3 7,8 12,1 14,2 15,1 15,1 8 4 10 6 O 1019,5 57 0 0,0
21.09.2017 20:00:00 14,6 7,2 11,2 15,6 15,3 15,1 7 4 11 6 ONO 1019,2 66 12 0,0
21.09.2017 19:00:00 16,0 6,6 14,8 17,4 15,4 15,1 6 3 12 7 NW 1018,8 70 60 0,0
21.09.2017 18:00:00 17,2 6,6 18,2 19,0 15,2 15,1 6 3 14 8 OZO 1018,7 70 60 0,0
21.09.2017 17:00:00 17,5 6,3 19,6 20,0 14,8 15,1 7 4 18 10 ZZO 1018,7 70 60 0,0
21.09.2017 16:00:00 17,8 6,2 20,1 20,5 14,2 15,1 10 5 18 10 Z 1019,0 52 60 0,0
21.09.2017 15:00:00 17,5 8,2 19,2 20,2 13,4 15,1 6 4 16 9 ONO 1019,3 69 60 0,0
21.09.2017 14:00:00 16,8 8,9 18,7 19,1 12,6 15,1 6 4 16 9 N 1019,9 38 60 0,0
21.09.2017 13:00:00 14,8 9,5 17,1 17,0 11,9 15,1 6 3 16 9 N 1020,6 22 60 0,0
21.09.2017 12:00:00 12,7 9,3 13,1 14,6 11,3 15,1 8 4 14 8 WZW 1021,3 14 60 0,0
21.09.2017 11:00:00 10,4 8,0 11,5 12,3 10,9 15,1 5 3 12 6 NNW 1022,1 7 60 0,0
21.09.2017 10:00:00 8,1 8,0 9,4 9,9 10,7 15,1 7 4 13 7 NNO 1022,3 3,2 52 0,0
21.09.2017 09:00:00 6,5 6,5 7,0 8,4 10,7 15,1 10 5 13 7 NNO 1022,5 0,1 0 0,0
21.09.2017 08:00:00 5,9 5,9 5,7 7,9 10,9 15,2 9 5 11 6 NNO 1022,4 0,1 0 0,0
21.09.2017 07:00:00 7,0 7,0 5,6 8,0 11,1 15,2 6 4 12 6 ONO 1022,2 1,4 0 0,0
21.09.2017 06:00:00 6,7 6,7 5,7 8,3 11,3 15,2 7 4 10 5 ONO 1022,2 0,2 0 0,0
21.09.2017 05:00:00 6,9 6,9 6,1 8,4 11,5 15,2 5 3 7 4 NO 1022,4 0,1 0 0,0
21.09.2017 04:00:00 7,6 7,6 5,5 8,5 11,8 15,2 5 3 7 4 ONO 1022,5 0,4 0 0,0
21.09.2017 03:00:00 8,0 8,0 6,1 8,8 12,0 15,2 5 3 6 4 O 1022,5 2,5 0 0,0
21.09.2017 02:00:00 8,8 8,7 5,8 9,2 12,3 15,2 4 2 8 4 OZO 1022,6 6 0 0,0
21.09.2017 01:00:00 9,1 8,9 6,4 9,7 12,6 15,2 8 4 8 5 Z 1022,5 7 0 0,0
21.09.2017 00:00:00 9,5 8,9 5,6 10,2 12,9 15,2 5 3 6 4 ZZW 1022,6 10 0 0,0
20.09.2017 23:00:00 10,0 9,0 6,6 10,7 13,2 15,2 5 3 8 5 ZZW 1022,5 18 0 0,0
20.09.2017 22:00:00 10,7 9,1 6,2 11,5 13,5 15,2 4 2 8 5 ZW 1022,4 29 0 0,0
20.09.2017 21:00:00 11,0 8,3 6,9 12,4 13,8 15,2 6 3 8 4 Z 1022,4 45 0 0,0
20.09.2017 20:00:00 11,1 7,7 8,2 13,8 14,0 15,2 4 2 7 4 Z 1022,1 70 18 0,0
20.09.2017 19:00:00 12,8 8,4 11,4 15,2 14,0 15,2 5 3 18 10 ZW 1021,6 70 23 0,0
20.09.2017 18:00:00 14,7 7,6 15,9 16,3 13,8 15,2 12 6 24 13 WZW 1021,4 70 39 0,0
20.09.2017 17:00:00 14,8 8,2 15,7 17,1 13,4 15,2 12 6 26 14 WZW 1021,6 70 44 0,0
20.09.2017 16:00:00 14,7 8,8 15,7 17,1 12,9 15,2 10 5 27 14 W 1021,6 51 34 0,0
20.09.2017 15:00:00 14,7 8,4 16,7 15,8 12,4 15,3 13 7 22 12 ZW 1022,0 57 32 0,0
20.09.2017 14:00:00 12,7 8,9 14,0 14,4 12,0 15,3 6 3 17 9 ZZW 1022,7 28 9 0,0
20.09.2017 13:00:00 11,3 8,9 12,6 12,7 11,8 15,3 6 3 21 12 W 1023,5 20 0 0,0
20.09.2017 12:00:00 10,0 9,6 10,5 11,9 11,6 15,3 14 7 23 13 WZW 1023,6 5 0 0,0
20.09.2017 11:00:00 9,5 9,5 10,4 11,4 11,5 15,3 14 8 24 13 WZW 1023,3 3,7 0 0,0
20.09.2017 10:00:00 9,3 9,3 10,1 10,8 11,4 15,3 10 5 13 7 ZW 1023,2 0,2 0 0,0
20.09.2017 09:00:00 8,8 8,8 9,0 10,2 11,4 15,3 8 4 14 7 ZW 1023,0 0,1 0 0,0
20.09.2017 08:00:00 8,6 8,6 8,6 9,8 11,4 15,3 7 4 13 7 ZZW 1022,7 0,1 0 0,0
20.09.2017 07:00:00 9,0 9,0 8,6 9,6 11,5 15,3 8 4 11 6 W 1022,3 2,6 0 0,0
20.09.2017 06:00:00 9,0 8,9 8,5 9,7 11,6 15,3 8 4 13 7 WZW 1022,1 4,5 0 0,0
20.09.2017 05:00:00 9,6 8,7 8,6 9,6 11,7 15,3 7 4 16 9 W 1022,0 10 0 0,0
20.09.2017 04:00:00 9,9 8,6 9,2 9,4 11,8 15,3 11 6 19 11 WNW 1022,2 12 0 0,0
20.09.2017 03:00:00 9,4 8,6 8,2 9,2 12,0 15,4 13 7 21 11 WNW 1022,1 12 0 0,0
20.09.2017 02:00:00 9,6 8,2 8,1 9,3 12,2 15,4 11 6 18 10 WNW 1022,2 14 0 0,0
20.09.2017 01:00:00 9,6 7,8 7,6 9,6 12,5 15,4 8 4 15 8 WNW 1022,1 21 0 0,0
20.09.2017 00:00:00 9,9 7,9 8,4 10,1 12,8 15,4 11 6 21 11 NW 1022,0 22 0 0,0
19.09.2017 23:00:00 9,7 8,3 8,0 10,7 13,1 15,4 13 7 19 11 NW 1022,1 22 0 0,0
19.09.2017 22:00:00 10,5 8,7 9,2 11,3 13,3 15,4 11 6 19 11 NW 1021,5 32 0 0,0
19.09.2017 21:00:00 10,7 9,0 9,8 12,2 13,5 15,4 10 6 16 9 WNW 1021,1 39 0 0,0
19.09.2017 20:00:00 11,3 9,3 10,7 13,1 13,6 15,4 8 4 19 10 WNW 1020,2 44 0 0,0
19.09.2017 19:00:00 12,1 10,2 12,0 14,2 13,6 15,4 8 5 14 8 WZW 1019,6 70 22 0,0
19.09.2017 18:00:00 13,1 10,3 13,7 14,5 13,5 15,4 8 4 16 9 W 1018,9 66 9 0,0
19.09.2017 17:00:00 11,8 9,8 11,2 14,8 13,4 15,4 6 3 28 15 WNW 1018,9 70 1 0,2
19.09.2017 16:00:00 12,3 8,9 12,7 15,4 13,2 15,4 16 9 33 18 W 1018,7 70 12 0,0
19.09.2017 15:00:00 12,1 9,3 11,8 14,9 13,0 15,4 9 5 27 15 WZW 1018,7 47 2 0,0
19.09.2017 14:00:00 12,5 9,8 14,4 15,3 12,7 15,4 12 7 20 11 ZW 1018,6 34 10 0,0
19.09.2017 13:00:00 10,9 8,9 11,9 14,1 12,4 15,5 13 7 20 11 W 1019,0 41 0 0,0
19.09.2017 12:00:00 11,4 9,0 13,1 14,1 12,0 15,5 11 6 20 11 W 1018,7 45 10 0,0
19.09.2017 11:00:00 10,6 9,4 11,3 12,2 11,8 15,5 9 5 18 10 W 1018,6 25 0 0,0
19.09.2017 10:00:00 9,6 9,3 10,1 11,2 11,7 15,5 11 6 18 10 WZW 1018,4 8 0 0,0
19.09.2017 09:00:00 8,8 8,8 8,9 10,5 11,7 15,5 10 6 21 11 WZW 1018,2 5 0 0,0
19.09.2017 08:00:00 - - - - - - - - - - - - - - -
19.09.2017 07:00:00 8,8 8,8 8,8 10,4 11,8 15,5 13 7 20 11 WZW 1017,6 0,4 0 0,2
19.09.2017 06:00:00 8,7 8,7 8,7 10,3 11,9 15,5 11 6 16 9 WZW 1017,4 2,9 0 0,0

tt = temperatuur
td = dauwpunt
tt 5cm = temperatuur 5cm
tt -5cm = temperatuur -5cm
tt -20cm = temperatuur -20cm
tt -100cm = temperatuur -100cm
ff = windsnelheid
fx = windstoten
dd = windrichting
ppp = luchtdruk
vv = zicht
sd = Zonneschijnduur
rr = neerslag

Weerstations in de omgeving